Time,TemperatureF,DewpointF,PressureIn,WindDirection,WindDirectionDegrees,WindSpeedMPH,WindSpeedGustMPH,Humidity,HourlyPrecipIn,Conditions,Clouds,dailyrainin,SoftwareType,DateUTC
2013-07-02 00:02:00,74.0,73.0,30.00,South,191,7.0,15.0,97,0.02,,,0.89,,2013-07-02 04:02:00,
2013-07-02 00:11:00,74.0,73.0,30.00,WSW,255,6.0,12.0,97,0.01,,,0.89,,2013-07-02 04:11:00,
2013-07-02 00:22:00,74.0,73.0,30.00,SSE,163,6.0,12.0,97,0.02,,,0.90,,2013-07-02 04:22:00,
2013-07-02 00:32:00,74.0,73.0,30.00,SSE,163,6.0,12.0,97,0.02,,,0.90,,2013-07-02 04:32:00,
2013-07-02 00:42:00,74.0,73.0,30.00,SSE,163,6.0,12.0,97,0.02,,,0.90,,2013-07-02 04:42:00,
2013-07-02 00:54:00,74.0,73.0,30.00,SSE,163,6.0,12.0,97,0.02,,,0.90,,2013-07-02 04:54:00,
2013-07-02 01:02:00,74.0,73.0,30.01,SSE,167,4.0,11.0,97,0.01,,,0.90,,2013-07-02 05:02:00,
2013-07-02 01:11:00,74.0,73.0,30.01,SSW,205,9.0,16.0,96,0.02,,,0.91,,2013-07-02 05:11:00,
2013-07-02 01:22:00,74.0,73.0,30.01,South,191,7.0,16.0,96,0.01,,,0.91,,2013-07-02 05:22:00,
2013-07-02 01:32:00,74.0,73.0,30.01,SSW,195,5.0,11.0,96,0.01,,,0.91,,2013-07-02 05:32:00,
2013-07-02 01:43:00,74.0,73.0,30.01,SSW,195,5.0,11.0,96,0.01,,,0.91,,2013-07-02 05:43:00,
2013-07-02 01:53:00,74.0,73.0,30.02,SW,217,9.0,15.0,96,0.02,,,0.92,,2013-07-02 05:53:00,
2013-07-02 02:01:00,74.0,73.0,30.02,SSE,161,7.0,14.0,96,0.01,,,0.92,,2013-07-02 06:01:00,
2013-07-02 02:12:00,74.0,73.0,30.02,SSE,161,7.0,14.0,96,0.01,,,0.92,,2013-07-02 06:12:00,
2013-07-02 02:23:00,74.0,73.0,30.02,SSW,197,6.0,12.0,96,0.01,,,0.92,,2013-07-02 06:23:00,
2013-07-02 02:34:00,73.0,72.0,30.02,SSE,166,8.0,11.0,96,0.01,,,0.92,,2013-07-02 06:34:00,
2013-07-02 02:43:00,73.0,72.0,30.02,SSE,166,8.0,11.0,96,0.01,,,0.92,,2013-07-02 06:43:00,
2013-07-02 02:53:00,73.0,72.0,30.02,SE,141,6.0,13.0,96,0.00,,,0.92,,2013-07-02 06:53:00,
2013-07-02 03:01:00,73.0,72.0,30.03,SSW,207,5.0,9.0,96,0.00,,,0.92,,2013-07-02 07:01:00,
2013-07-02 03:12:00,73.0,72.0,30.03,SSW,207,5.0,9.0,96,0.00,,,0.92,,2013-07-02 07:12:00,
2013-07-02 03:22:00,73.0,72.0,30.03,South,169,4.0,9.0,96,0.00,,,0.92,,2013-07-02 07:22:00,
2013-07-02 03:34:00,73.0,72.0,30.03,South,169,4.0,9.0,96,0.00,,,0.92,,2013-07-02 07:34:00,
2013-07-02 03:44:00,73.0,72.0,30.03,South,169,5.0,8.0,97,0.01,,,0.93,,2013-07-02 07:44:00,
2013-07-02 03:53:00,73.0,72.0,30.04,SSE,148,4.0,8.0,97,0.01,,,0.93,,2013-07-02 07:53:00,
2013-07-02 04:02:00,73.0,72.0,30.04,SSW,200,5.0,12.0,97,0.01,,,0.93,,2013-07-02 08:02:00,
2013-07-02 04:12:00,73.0,72.0,30.04,SSW,200,5.0,12.0,97,0.01,,,0.93,,2013-07-02 08:12:00,
2013-07-02 04:22:00,73.0,72.0,30.04,South,186,4.0,9.0,97,0.01,,,0.93,,2013-07-02 08:22:00,
2013-07-02 04:33:00,73.0,72.0,30.04,South,186,4.0,9.0,97,0.01,,,0.93,,2013-07-02 08:33:00,
2013-07-02 04:44:00,73.0,72.0,30.04,SSE,166,4.0,8.0,97,0.00,,,0.93,,2013-07-02 08:44:00,
2013-07-02 04:53:00,73.0,72.0,30.05,SSE,166,3.0,8.0,97,0.00,,,0.93,,2013-07-02 08:53:00,
2013-07-02 05:02:00,73.0,72.0,30.05,SSE,159,5.0,10.0,97,0.00,,,0.93,,2013-07-02 09:02:00,
2013-07-02 05:11:00,73.0,72.0,30.05,SSE,159,5.0,10.0,97,0.00,,,0.93,,2013-07-02 09:11:00,
2013-07-02 05:33:00,73.0,72.0,30.05,SSE,151,4.0,8.0,97,0.00,,,0.93,,2013-07-02 09:33:00,
2013-07-02 05:43:00,73.0,72.0,30.06,SE,146,5.0,7.0,97,0.00,,,0.93,,2013-07-02 09:43:00,
2013-07-02 05:52:00,73.0,72.0,30.06,South,177,4.0,9.0,97,0.00,,,0.93,,2013-07-02 09:52:00,
2013-07-02 06:01:00,73.0,72.0,30.07,South,176,5.0,10.0,97,0.00,,,0.93,,2013-07-02 10:01:00,
2013-07-02 06:11:00,73.0,72.0,30.07,South,176,5.0,10.0,97,0.00,,,0.93,,2013-07-02 10:11:00,
2013-07-02 06:22:00,73.0,72.0,30.08,SSE,156,5.0,9.0,97,0.00,,,0.93,,2013-07-02 10:22:00,
2013-07-02 06:44:00,73.0,72.0,30.08,South,191,5.0,8.0,97,0.00,,,0.93,,2013-07-02 10:44:00,
2013-07-02 06:52:00,73.0,72.0,30.08,SE,136,5.0,9.0,97,0.00,,,0.93,,2013-07-02 10:52:00,
2013-07-02 07:01:00,73.0,72.0,30.09,SSE,165,5.0,8.0,97,0.00,,,0.93,,2013-07-02 11:01:00,
2013-07-02 07:11:00,73.0,72.0,30.09,SSE,165,5.0,8.0,97,0.00,,,0.93,,2013-07-02 11:11:00,
2013-07-02 07:22:00,73.0,72.0,30.09,SSE,158,4.0,9.0,97,0.00,,,0.86,,2013-07-02 11:22:00,
2013-07-02 07:33:00,73.0,72.0,30.09,SSE,158,4.0,9.0,97,0.00,,,0.86,,2013-07-02 11:33:00,
2013-07-02 07:42:00,73.0,72.0,30.09,South,173,4.0,6.0,97,0.00,,,0.86,,2013-07-02 11:42:00,
2013-07-02 07:52:00,73.0,72.0,30.10,SE,143,5.0,8.0,97,0.00,,,0.86,,2013-07-02 11:52:00,
2013-07-02 08:11:00,74.0,73.0,30.11,SSE,163,3.0,8.0,97,0.00,,,0.86,,2013-07-02 12:11:00,
2013-07-02 08:23:00,74.0,73.0,30.11,SE,146,5.0,9.0,97,0.00,,,0.56,,2013-07-02 12:23:00,
2013-07-02 08:43:00,74.0,73.0,30.12,South,174,4.0,8.0,97,0.00,,,0.56,,2013-07-02 12:43:00,
2013-07-02 08:52:00,74.0,73.0,30.12,SSE,159,4.0,10.0,97,0.00,,,0.56,,2013-07-02 12:52:00,
2013-07-02 09:11:00,75.0,74.0,30.12,SSE,167,3.0,8.0,97,0.00,,,0.56,,2013-07-02 13:11:00,
2013-07-02 09:34:00,75.0,74.0,30.12,SSE,149,4.0,9.0,96,0.00,,,0.29,,2013-07-02 13:34:00,
2013-07-02 09:43:00,75.0,74.0,30.13,South,172,4.0,9.0,96,0.00,,,0.29,,2013-07-02 13:43:00,
2013-07-02 09:52:00,76.0,74.0,30.12,SE,135,5.0,8.0,94,0.01,,,0.30,,2013-07-02 13:52:00,
2013-07-02 10:02:00,76.0,74.0,30.13,SE,136,5.0,8.0,94,0.01,,,0.30,,2013-07-02 14:02:00,
2013-07-02 10:11:00,76.0,74.0,30.13,SE,136,5.0,8.0,94,0.01,,,0.30,,2013-07-02 14:11:00,
2013-07-02 10:22:00,77.0,75.0,30.13,SW,222,3.0,10.0,93,0.01,,,0.14,,2013-07-02 14:22:00,
2013-07-02 10:43:00,78.0,75.0,30.12,South,180,3.0,9.0,91,0.01,,,0.14,,2013-07-02 14:43:00,
2013-07-02 10:53:00,74.0,71.0,30.14,SSW,207,9.0,16.0,90,0.00,,,0.14,,2013-07-02 14:53:00,
2013-07-02 11:02:00,72.0,70.0,30.14,South,190,7.0,12.0,95,0.01,,,0.15,,2013-07-02 15:02:00,
2013-07-02 11:12:00,72.0,70.0,30.14,South,190,7.0,12.0,95,0.01,,,0.15,,2013-07-02 15:12:00,
2013-07-02 11:22:00,71.0,70.0,30.14,SSE,163,4.0,7.0,96,0.01,,,0.14,,2013-07-02 15:22:00,
2013-07-02 11:33:00,72.0,71.0,30.15,South,174,6.0,11.0,96,0.02,,,0.15,,2013-07-02 15:33:00,
2013-07-02 11:44:00,72.0,71.0,30.15,South,174,6.0,11.0,96,0.02,,,0.15,,2013-07-02 15:44:00,
2013-07-02 11:53:00,72.0,71.0,30.16,SSE,159,6.0,11.0,96,0.03,,,0.16,,2013-07-02 15:53:00,
2013-07-02 12:01:00,72.0,71.0,30.16,SSE,159,6.0,11.0,96,0.03,,,0.16,,2013-07-02 16:01:00,
2013-07-02 12:12:00,71.0,70.0,30.16,South,177,4.0,9.0,96,0.02,,,0.16,,2013-07-02 16:12:00,
2013-07-02 12:33:00,71.0,70.0,30.18,SSW,210,5.0,9.0,97,0.02,,,0.17,,2013-07-02 16:33:00,
2013-07-02 12:43:00,71.0,70.0,30.18,SSW,210,5.0,9.0,97,0.02,,,0.17,,2013-07-02 16:43:00,
2013-07-02 13:02:00,72.0,71.0,30.17,SSE,150,4.0,12.0,97,0.01,,,0.17,,2013-07-02 17:02:00,
2013-07-02 13:12:00,72.0,71.0,30.16,South,187,3.0,8.0,97,0.01,,,0.17,,2013-07-02 17:12:00,
2013-07-02 13:43:00,72.0,71.0,30.16,South,171,5.0,9.0,97,0.02,,,0.19,,2013-07-02 17:43:00,
2013-07-02 13:53:00,73.0,72.0,30.16,SE,136,4.0,7.0,97,0.03,,,0.20,,2013-07-02 17:53:00,
2013-07-02 14:02:00,73.0,72.0,30.16,SE,136,4.0,7.0,97,0.03,,,0.20,,2013-07-02 18:02:00,
2013-07-02 14:12:00,73.0,72.0,30.16,SSE,158,4.0,8.0,97,0.06,,,0.23,,2013-07-02 18:12:00,
2013-07-02 14:23:00,74.0,73.0,30.16,South,190,5.0,9.0,97,0.10,,,0.28,,2013-07-02 18:23:00,
2013-07-02 14:34:00,74.0,73.0,30.16,South,190,5.0,9.0,97,0.10,,,0.28,,2013-07-02 18:34:00,
2013-07-02 14:43:00,74.0,73.0,30.16,SSE,159,4.0,7.0,96,0.15,,,0.34,,2013-07-02 18:43:00,
2013-07-02 14:53:00,74.0,73.0,30.16,SSE,159,4.0,7.0,96,0.15,,,0.34,,2013-07-02 18:53:00,
2013-07-02 15:01:00,74.0,73.0,30.16,SSE,159,4.0,7.0,96,0.15,,,0.34,,2013-07-02 19:01:00,
2013-07-02 15:12:00,73.0,72.0,30.17,South,172,4.0,7.0,96,0.25,,,0.48,,2013-07-02 19:12:00,
2013-07-02 15:22:00,74.0,73.0,30.17,SSE,153,5.0,9.0,97,0.24,,,0.52,,2013-07-02 19:22:00,
2013-07-02 15:34:00,74.0,73.0,30.17,SE,145,5.0,8.0,96,0.21,,,0.55,,2013-07-02 19:34:00,
2013-07-02 15:43:00,74.0,73.0,30.17,SE,145,5.0,8.0,96,0.21,,,0.55,,2013-07-02 19:43:00,
2013-07-02 15:53:00,74.0,73.0,30.17,SE,141,3.0,9.0,96,0.15,,,0.57,,2013-07-02 19:53:00,
2013-07-02 16:02:00,74.0,73.0,30.17,SE,141,3.0,9.0,96,0.15,,,0.57,,2013-07-02 20:02:00,
2013-07-02 16:11:00,74.0,73.0,30.16,SSE,148,5.0,8.0,96,0.12,,,0.60,,2013-07-02 20:11:00,
2013-07-02 16:22:00,74.0,73.0,30.16,SE,139,2.0,6.0,96,0.11,,,0.63,,2013-07-02 20:22:00,
2013-07-02 16:43:00,74.0,73.0,30.16,SE,128,3.0,6.0,96,0.10,,,0.65,,2013-07-02 20:43:00,
2013-07-02 16:52:00,74.0,73.0,30.16,SSE,164,3.0,5.0,96,0.08,,,0.65,,2013-07-02 20:52:00,
2013-07-02 17:03:00,74.0,73.0,30.16,SSE,164,3.0,5.0,96,0.08,,,0.65,,2013-07-02 21:03:00,
2013-07-02 17:11:00,74.0,73.0,30.16,SSE,148,2.0,5.0,96,0.06,,,0.66,,2013-07-02 21:11:00,
2013-07-02 17:22:00,75.0,74.0,30.16,SSE,167,4.0,5.0,96,0.03,,,0.66,,2013-07-02 21:22:00,
2013-07-02 17:33:00,74.0,73.0,30.15,SE,139,4.0,6.0,96,0.01,,,0.66,,2013-07-02 21:33:00,
2013-07-02 17:44:00,74.0,73.0,30.15,SE,139,4.0,6.0,96,0.01,,,0.66,,2013-07-02 21:44:00,
2013-07-02 17:52:00,74.0,72.0,30.15,SSE,148,5.0,9.0,95,0.01,,,0.66,,2013-07-02 21:52:00,
2013-07-02 18:01:00,74.0,72.0,30.15,SSE,148,5.0,9.0,95,0.01,,,0.66,,2013-07-02 22:01:00,
2013-07-02 18:11:00,74.0,72.0,30.15,SSE,148,5.0,9.0,95,0.01,,,0.66,,2013-07-02 22:11:00,
2013-07-02 18:22:00,74.0,72.0,30.14,SE,143,5.0,9.0,95,0.00,,,0.66,,2013-07-02 22:22:00,
2013-07-02 18:43:00,74.0,72.0,30.14,SSE,167,5.0,9.0,95,0.00,,,0.66,,2013-07-02 22:43:00,
2013-07-02 18:53:00,74.0,73.0,30.15,SSE,148,3.0,5.0,96,0.01,,,0.67,,2013-07-02 22:53:00,
2013-07-02 19:01:00,74.0,73.0,30.15,SSE,159,4.0,7.0,96,0.01,,,0.67,,2013-07-02 23:01:00,
2013-07-02 19:12:00,74.0,73.0,30.15,SSE,159,4.0,7.0,96,0.01,,,0.67,,2013-07-02 23:12:00,
2013-07-02 19:22:00,74.0,73.0,30.16,ESE,107,4.0,8.0,97,0.01,,,0.67,,2013-07-02 23:22:00,
2013-07-02 19:33:00,74.0,73.0,30.16,SE,136,4.0,8.0,97,0.01,,,0.67,,2013-07-02 23:33:00,
2013-07-02 19:44:00,74.0,73.0,30.16,SE,136,4.0,8.0,97,0.01,,,0.67,,2013-07-02 23:44:00,
2013-07-02 19:52:00,74.0,73.0,30.16,SE,131,4.0,8.0,97,0.00,,,0.67,,2013-07-02 23:52:00,
2013-07-02 20:01:00,74.0,73.0,30.17,East,94,3.0,5.0,97,0.00,,,0.67,,2013-07-03 00:01:00,
2013-07-02 20:22:00,74.0,73.0,30.17,SE,128,5.0,7.0,97,0.00,,,0.67,,2013-07-03 00:22:00,
2013-07-02 20:33:00,74.0,73.0,30.17,SE,129,4.0,8.0,97,0.00,,,0.67,,2013-07-03 00:33:00,
2013-07-02 20:44:00,74.0,73.0,30.17,SE,129,4.0,8.0,97,0.00,,,0.67,,2013-07-03 00:44:00,
2013-07-02 20:52:00,74.0,73.0,30.17,SSE,153,3.0,7.0,97,0.00,,,0.67,,2013-07-03 00:52:00,
2013-07-02 21:01:00,74.0,73.0,30.17,SSE,153,3.0,7.0,97,0.00,,,0.67,,2013-07-03 01:01:00,
2013-07-02 21:22:00,74.0,73.0,30.18,SE,126,5.0,8.0,98,0.00,,,0.67,,2013-07-03 01:22:00,
2013-07-02 21:33:00,74.0,73.0,30.18,SE,129,3.0,6.0,98,0.00,,,0.66,,2013-07-03 01:33:00,
2013-07-02 21:57:00,74.0,73.0,30.18,SE,130,4.0,7.0,98,0.00,,,0.66,,2013-07-03 01:57:00,
2013-07-02 22:06:00,74.0,73.0,30.19,SE,144,3.0,7.0,98,0.00,,,0.66,,2013-07-03 02:06:00,
2013-07-02 22:15:00,74.0,73.0,30.19,SE,144,3.0,7.0,98,0.00,,,0.66,,2013-07-03 02:15:00,
2013-07-02 22:28:00,74.0,73.0,30.19,SE,127,2.0,5.0,98,0.00,,,0.62,,2013-07-03 02:28:00,
2013-07-02 22:39:00,74.0,73.0,30.19,SE,127,2.0,5.0,98,0.00,,,0.62,,2013-07-03 02:39:00,
2013-07-02 22:44:00,74.0,73.0,30.19,East,92,3.0,5.0,98,0.00,,,0.62,,2013-07-03 02:44:00,
2013-07-02 23:06:00,74.0,73.0,30.20,ESE,122,3.0,5.0,98,0.00,,,0.62,,2013-07-03 03:06:00,
2013-07-02 23:36:00,74.0,73.0,30.19,ESE,113,4.0,6.0,98,0.00,,,0.60,,2013-07-03 03:36:00,
2013-07-02 23:48:00,74.0,73.0,30.19,SSE,157,2.0,6.0,98,0.00,,,0.60,,2013-07-03 03:48:00,
2013-07-02 23:57:00,74.0,73.0,30.19,SE,136,2.0,5.0,98,0.00,,,0.60,,2013-07-03 03:57:00,